TimeEDT,TemperatureF,Dew PointF,Humidity,Sea Level PressureIn,VisibilityMPH,Wind Direction,Wind SpeedMPH,Gust SpeedMPH,PrecipitationIn,Events,Conditions,WindDirDegrees,DateUTC
12:15 AM,70.0,69.8,99,30.12,10.0,West,3.5,-,N/A,,Clear,260,2013-06-26 04:15:00
12:35 AM,70.2,68.0,93,30.11,10.0,Calm,Calm,-,N/A,,Clear,0,2013-06-26 04:35:00
12:55 AM,68.2,66.9,96,30.10,10.0,Calm,Calm,-,N/A,,Clear,0,2013-06-26 04:55:00
1:15 AM,66.6,66.0,98,30.10,7.0,Calm,Calm,-,N/A,,Clear,0,2013-06-26 05:15:00
1:35 AM,67.3,67.1,99,30.09,7.0,Calm,Calm,-,N/A,,Clear,0,2013-06-26 05:35:00
1:55 AM,66.2,66.2,100,30.09,7.0,Calm,Calm,-,N/A,,Clear,0,2013-06-26 05:55:00
2:15 AM,67.3,67.3,100,30.08,7.0,Calm,Calm,-,N/A,,Clear,0,2013-06-26 06:15:00
2:35 AM,67.8,67.6,99,30.07,10.0,Calm,Calm,-,N/A,,Clear,0,2013-06-26 06:35:00
2:55 AM,66.4,66.4,100,30.07,7.0,Calm,Calm,-,N/A,,Clear,0,2013-06-26 06:55:00
3:15 AM,65.3,65.3,100,30.07,5.0,Calm,Calm,-,N/A,,Clear,0,2013-06-26 07:15:00
3:35 AM,64.8,64.6,99,30.07,5.0,Calm,Calm,-,N/A,,Clear,0,2013-06-26 07:35:00
3:55 AM,63.9,63.9,100,30.06,5.0,Calm,Calm,-,N/A,,Clear,0,2013-06-26 07:55:00
4:15 AM,66.4,66.4,100,30.06,5.0,NNW,4.6,-,N/A,,Scattered Clouds,330,2013-06-26 08:15:00
4:35 AM,65.5,65.5,100,30.06,0.5,Calm,Calm,-,N/A,Fog,Fog,0,2013-06-26 08:35:00
4:55 AM,63.5,63.5,100,30.07,2.5,Calm,Calm,-,N/A,,Clear,0,2013-06-26 08:55:00
5:15 AM,63.1,63.1,100,30.07,7.0,Calm,Calm,-,N/A,,Clear,0,2013-06-26 09:15:00
5:35 AM,63.0,63.0,100,30.08,1.2,Calm,Calm,-,N/A,,Mist,0,2013-06-26 09:35:00
5:55 AM,63.0,63.0,100,30.09,3.0,Calm,Calm,-,N/A,,Clear,0,2013-06-26 09:55:00
6:15 AM,63.7,63.7,100,30.10,0.2,South,3.5,-,N/A,Fog,Fog,190,2013-06-26 10:15:00
6:35 AM,64.4,64.4,100,30.10,2.0,Calm,Calm,-,N/A,,Clear,0,2013-06-26 10:35:00
6:55 AM,64.2,64.2,100,30.10,4.0,Calm,Calm,-,N/A,,Clear,0,2013-06-26 10:55:00
7:15 AM,64.9,64.9,100,30.10,0.2,Calm,Calm,-,N/A,Fog,Fog,0,2013-06-26 11:15:00
7:35 AM,65.3,65.3,100,30.11,0.2,Calm,Calm,-,N/A,Fog,Fog,0,2013-06-26 11:35:00
7:55 AM,65.8,65.8,100,30.10,0.2,Calm,Calm,-,N/A,Fog,Fog,0,2013-06-26 11:55:00
8:15 AM,66.9,66.9,100,30.10,3.0,Calm,Calm,-,N/A,,Mostly Cloudy,0,2013-06-26 12:15:00
8:35 AM,68.7,68.7,100,30.10,10.0,WSW,3.5,-,N/A,,Scattered Clouds,250,2013-06-26 12:35:00
8:55 AM,70.7,68.2,92,30.10,10.0,WSW,4.6,-,N/A,,Scattered Clouds,250,2013-06-26 12:55:00
9:15 AM,71.8,68.0,88,30.12,10.0,WSW,3.5,-,N/A,,Mostly Cloudy,250,2013-06-26 13:15:00
9:35 AM,73.4,66.4,79,30.10,10.0,South,3.5,-,N/A,,Mostly Cloudy,190,2013-06-26 13:35:00
9:55 AM,75.4,67.5,76,30.09,10.0,SSW,3.5,-,N/A,,Scattered Clouds,200,2013-06-26 13:55:00
10:15 AM,77.9,67.1,69,30.08,10.0,SSW,4.6,-,N/A,,Clear,210,2013-06-26 14:15:00
10:55 AM,80.6,66.7,63,30.08,10.0,SSW,4.6,-,N/A,,Scattered Clouds,210,2013-06-26 14:55:00
11:15 AM,80.4,66.6,63,30.08,10.0,WSW,3.5,-,N/A,,Scattered Clouds,250,2013-06-26 15:15:00
11:35 AM,81.5,66.9,61,30.08,10.0,SW,4.6,-,N/A,,Scattered Clouds,230,2013-06-26 15:35:00
11:55 AM,82.8,67.6,60,30.07,10.0,SSW,6.9,-,N/A,,Clear,210,2013-06-26 15:55:00
12:15 PM,83.3,67.8,59,30.07,10.0,SSE,3.5,-,N/A,,Clear,150,2013-06-26 16:15:00
12:35 PM,84.4,67.5,57,30.07,10.0,SSE,3.5,-,N/A,,Clear,150,2013-06-26 16:35:00
12:55 PM,84.7,67.1,55,30.07,10.0,SSW,3.5,-,N/A,,Scattered Clouds,200,2013-06-26 16:55:00
1:15 PM,85.6,67.1,54,30.06,10.0,South,3.5,-,N/A,,Scattered Clouds,170,2013-06-26 17:15:00
1:35 PM,86.0,67.6,54,30.05,10.0,South,5.8,-,N/A,,Mostly Cloudy,180,2013-06-26 17:35:00
1:55 PM,86.9,66.9,51,30.05,10.0,SSW,4.6,-,N/A,,Scattered Clouds,200,2013-06-26 17:55:00
2:15 PM,85.5,67.8,55,30.04,10.0,SSW,5.8,-,N/A,,Scattered Clouds,210,2013-06-26 18:15:00
2:35 PM,88.2,65.7,47,30.02,10.0,SSW,4.6,-,N/A,,Scattered Clouds,210,2013-06-26 18:35:00
2:55 PM,88.0,64.8,46,30.01,10.0,South,5.8,-,N/A,,Clear,180,2013-06-26 18:55:00
3:15 PM,86.9,66.4,50,30.02,10.0,SSW,6.9,-,N/A,,Clear,210,2013-06-26 19:15:00
3:35 PM,84.0,68.9,60,30.02,10.0,WSW,9.2,18.4,N/A,,Scattered Clouds,240,2013-06-26 19:35:00
3:55 PM,79.2,64.9,62,30.02,10.0,SW,9.2,19.6,N/A,,Scattered Clouds,230,2013-06-26 19:55:00
4:15 PM,76.8,64.9,67,30.03,10.0,North,3.5,-,N/A,,Scattered Clouds,360,2013-06-26 20:15:00
4:35 PM,75.4,65.1,70,30.03,10.0,Calm,Calm,-,N/A,,Clear,0,2013-06-26 20:35:00
4:55 PM,75.9,64.9,69,30.02,10.0,Calm,Calm,-,N/A,,Clear,0,2013-06-26 20:55:00
5:15 PM,75.2,67.1,76,30.01,10.0,ESE,4.6,-,N/A,,Clear,120,2013-06-26 21:15:00
5:35 PM,74.7,68.2,80,30.01,10.0,ESE,3.5,-,N/A,,Clear,110,2013-06-26 21:35:00
5:55 PM,75.0,68.0,79,30.00,10.0,Calm,Calm,-,N/A,,Clear,0,2013-06-26 21:55:00
6:15 PM,75.4,68.2,78,30.01,10.0,East,3.5,-,N/A,,Clear,100,2013-06-26 22:15:00
6:35 PM,76.1,67.3,74,30.02,10.0,Calm,Calm,-,N/A,,Clear,0,2013-06-26 22:35:00
6:55 PM,76.1,67.3,74,30.01,10.0,Calm,Calm,-,N/A,,Clear,0,2013-06-26 22:55:00
7:15 PM,76.1,68.4,77,30.00,10.0,Calm,Calm,-,N/A,,Scattered Clouds,0,2013-06-26 23:15:00
7:35 PM,75.6,68.5,79,30.02,10.0,Calm,Calm,-,N/A,,Scattered Clouds,0,2013-06-26 23:35:00
7:55 PM,74.7,69.3,83,30.02,10.0,Calm,Calm,-,N/A,,Scattered Clouds,0,2013-06-26 23:55:00
8:15 PM,73.6,69.1,86,30.00,10.0,Calm,Calm,-,N/A,,Clear,0,2013-06-27 00:15:00
8:35 PM,73.4,69.3,87,30.02,10.0,Calm,Calm,-,N/A,,Clear,0,2013-06-27 00:35:00
8:55 PM,73.0,68.5,86,30.01,10.0,Calm,Calm,-,N/A,,Clear,0,2013-06-27 00:55:00
9:15 PM,71.6,68.7,91,30.00,10.0,Calm,Calm,-,N/A,,Clear,0,2013-06-27 01:15:00
9:35 PM,71.6,68.2,89,30.00,10.0,Calm,Calm,-,N/A,,Clear,0,2013-06-27 01:35:00
9:55 PM,71.2,68.5,91,30.00,10.0,Calm,Calm,-,N/A,,Clear,0,2013-06-27 01:55:00
10:15 PM,70.2,68.4,94,30.01,10.0,ESE,4.6,-,N/A,,Clear,110,2013-06-27 02:15:00
10:35 PM,70.3,68.4,93,30.01,10.0,Calm,Calm,-,N/A,,Clear,0,2013-06-27 02:35:00
10:55 PM,69.8,68.5,96,30.02,10.0,NNW,4.6,-,N/A,,Clear,340,2013-06-27 02:55:00
11:15 PM,69.1,68.0,96,30.02,10.0,East,3.5,-,N/A,,Clear,100,2013-06-27 03:15:00
11:35 PM,68.7,68.0,98,30.02,10.0,Calm,Calm,-,N/A,,Clear,0,2013-06-27 03:35:00
11:55 PM,68.0,67.6,99,30.02,10.0,Calm,Calm,-,N/A,,Clear,0,2013-06-27 03:55:00